owner,sensor,date,latitude,longitude,air_temperature,qcFlag 
WAVCIS,ioos:station:WAVCIS:CSI03:1,2011-02-01T00:00:00Z,29.4412,-92.0613,13.44,11111222 
WAVCIS,ioos:station:WAVCIS:CSI03:1,2011-02-01T01:00:00Z,29.4412,-92.0613,13.52,11111222 
WAVCIS,ioos:station:WAVCIS:CSI03:1,2011-02-01T02:00:00Z,29.4412,-92.0613,13.75,11111222 
WAVCIS,ioos:station:WAVCIS:CSI03:1,2011-02-01T03:00:00Z,29.4412,-92.0613,14.71,11111222 
WAVCIS,ioos:station:WAVCIS:CSI03:1,2011-02-01T04:00:00Z,29.4412,-92.0613,15.12,11111222 
WAVCIS,ioos:station:WAVCIS:CSI03:1,2011-02-01T05:00:00Z,29.4412,-92.0613,14.89,11111222 
WAVCIS,ioos:station:WAVCIS:CSI03:1,2011-02-01T06:00:00Z,29.4412,-92.0613,14.71,11111222 
WAVCIS,ioos:station:WAVCIS:CSI03:1,2011-02-01T07:00:00Z,29.4412,-92.0613,14.75,11111222 
WAVCIS,ioos:station:WAVCIS:CSI03:1,2011-02-01T08:00:00Z,29.4412,-92.0613,14.83,11111222 
WAVCIS,ioos:station:WAVCIS:CSI03:1,2011-02-01T09:00:00Z,29.4412,-92.0613,14.91,11111222 
WAVCIS,ioos:station:WAVCIS:CSI03:1,2011-02-01T10:00:00Z,29.4412,-92.0613,15.24,11111222 
WAVCIS,ioos:station:WAVCIS:CSI03:1,2011-02-01T11:00:00Z,29.4412,-92.0613,15.45,11111222 
WAVCIS,ioos:station:WAVCIS:CSI03:1,2011-02-01T12:00:00Z,29.4412,-92.0613,15.7,11111222 
WAVCIS,ioos:station:WAVCIS:CSI03:1,2011-02-01T13:00:00Z,29.4412,-92.0613,16.13,11111222 
WAVCIS,ioos:station:WAVCIS:CSI03:1,2011-02-01T14:00:00Z,29.4412,-92.0613,16.07,11111222 
WAVCIS,ioos:station:WAVCIS:CSI03:1,2011-02-01T15:00:00Z,29.4412,-92.0613,16.23,11111222 
WAVCIS,ioos:station:WAVCIS:CSI03:1,2011-02-01T16:00:00Z,29.4412,-92.0613,17.22,11111222 
WAVCIS,ioos:station:WAVCIS:CSI03:1,2011-02-01T17:00:00Z,29.4412,-92.0613,16.89,11111222 
WAVCIS,ioos:station:WAVCIS:CSI03:1,2011-02-01T18:00:00Z,29.4412,-92.0613,17.63,11111222 
WAVCIS,ioos:station:WAVCIS:CSI03:1,2011-02-01T19:00:00Z,29.4412,-92.0613,14.52,11111222 
WAVCIS,ioos:station:WAVCIS:CSI03:1,2011-02-01T20:00:00Z,29.4412,-92.0613,13.3,11111222 
WAVCIS,ioos:station:WAVCIS:CSI03:1,2011-02-01T21:00:00Z,29.4412,-92.0613,11.01,11111222 
WAVCIS,ioos:station:WAVCIS:CSI03:1,2011-02-01T22:00:00Z,29.4412,-92.0613,10.77,11111222 
WAVCIS,ioos:station:WAVCIS:CSI03:1,2011-02-01T23:00:00Z,29.4412,-92.0613,9.81,11111222 
WAVCIS,ioos:station:WAVCIS:CSI03:1,2011-02-02T00:00:00Z,29.4412,-92.0613,8.22,11111222 
WAVCIS,ioos:station:WAVCIS:CSI03:1,2011-02-02T01:00:00Z,29.4412,-92.0613,6.794,11111222 
WAVCIS,ioos:station:WAVCIS:CSI03:1,2011-02-02T02:00:00Z,29.4412,-92.0613,5.61,11111222 
WAVCIS,ioos:station:WAVCIS:CSI03:1,2011-02-02T03:00:00Z,29.4412,-92.0613,4.68,11111222 
WAVCIS,ioos:station:WAVCIS:CSI03:1,2011-02-02T04:00:00Z,29.4412,-92.0613,3.031,11111222 
WAVCIS,ioos:station:WAVCIS:CSI03:1,2011-02-02T05:00:00Z,29.4412,-92.0613,2.114,11111222 
WAVCIS,ioos:station:WAVCIS:CSI03:1,2011-02-02T06:00:00Z,29.4412,-92.0613,1.571,11111222 
WAVCIS,ioos:station:WAVCIS:CSI03:1,2011-02-02T07:00:00Z,29.4412,-92.0613,0.783,11111222 
WAVCIS,ioos:station:WAVCIS:CSI03:1,2011-02-02T08:00:00Z,29.4412,-92.0613,0.406,11111222 
WAVCIS,ioos:station:WAVCIS:CSI03:1,2011-02-02T09:00:00Z,29.4412,-92.0613,-0.197,11133222 
WAVCIS,ioos:station:WAVCIS:CSI03:1,2011-02-02T10:00:00Z,29.4412,-92.0613,-0.785,11133222 
WAVCIS,ioos:station:WAVCIS:CSI03:1,2011-02-02T11:00:00Z,29.4412,-92.0613,-1.113,11133222 
WAVCIS,ioos:station:WAVCIS:CSI03:1,2011-02-02T12:00:00Z,29.4412,-92.0613,-1.319,11133222 
WAVCIS,ioos:station:WAVCIS:CSI03:1,2011-02-02T13:00:00Z,29.4412,-92.0613,-1.923,11133222 
WAVCIS,ioos:station:WAVCIS:CSI03:1,2011-02-02T14:00:00Z,29.4412,-92.0613,-2.518,11133222 
WAVCIS,ioos:station:WAVCIS:CSI03:1,2011-02-02T15:00:00Z,29.4412,-92.0613,-2.451,11133222 
WAVCIS,ioos:station:WAVCIS:CSI03:1,2011-02-02T16:00:00Z,29.4412,-92.0613,-2.223,11133222 
WAVCIS,ioos:station:WAVCIS:CSI03:1,2011-02-02T17:00:00Z,29.4412,-92.0613,-2.096,11133222 
WAVCIS,ioos:station:WAVCIS:CSI03:1,2011-02-02T18:00:00Z,29.4412,-92.0613,-1.568,11133222 
WAVCIS,ioos:station:WAVCIS:CSI03:1,2011-02-02T19:00:00Z,29.4412,-92.0613,-0.578,11133222 
WAVCIS,ioos:station:WAVCIS:CSI03:1,2011-02-02T20:00:00Z,29.4412,-92.0613,-0.117,11133222 
WAVCIS,ioos:station:WAVCIS:CSI03:1,2011-02-02T21:00:00Z,29.4412,-92.0613,0.172,11111222 
WAVCIS,ioos:station:WAVCIS:CSI03:1,2011-02-02T22:00:00Z,29.4412,-92.0613,0.224,11111222 
WAVCIS,ioos:station:WAVCIS:CSI03:1,2011-02-02T23:00:00Z,29.4412,-92.0613,0.566,11111222 
WAVCIS,ioos:station:WAVCIS:CSI03:1,2011-02-03T00:00:00Z,29.4412,-92.0613,1.064,11111222 
WAVCIS,ioos:station:WAVCIS:CSI03:1,2011-02-03T01:00:00Z,29.4412,-92.0613,1.285,11111222 
WAVCIS,ioos:station:WAVCIS:CSI03:1,2011-02-03T02:00:00Z,29.4412,-92.0613,1.142,11111222 
WAVCIS,ioos:station:WAVCIS:CSI03:1,2011-02-03T03:00:00Z,29.4412,-92.0613,1.267,11111222 
WAVCIS,ioos:station:WAVCIS:CSI03:1,2011-02-03T04:00:00Z,29.4412,-92.0613,1.338,11111222 
WAVCIS,ioos:station:WAVCIS:CSI03:1,2011-02-03T05:00:00Z,29.4412,-92.0613,1.422,11111222 
WAVCIS,ioos:station:WAVCIS:CSI03:1,2011-02-03T06:00:00Z,29.4412,-92.0613,1.119,11111222 
WAVCIS,ioos:station:WAVCIS:CSI03:1,2011-02-03T07:00:00Z,29.4412,-92.0613,1.131,11111222 
WAVCIS,ioos:station:WAVCIS:CSI03:1,2011-02-03T08:00:00Z,29.4412,-92.0613,0.722,11111222 
WAVCIS,ioos:station:WAVCIS:CSI03:1,2011-02-03T09:00:00Z,29.4412,-92.0613,0.7,11111222 
WAVCIS,ioos:station:WAVCIS:CSI03:1,2011-02-03T10:00:00Z,29.4412,-92.0613,0.719,11111222 
WAVCIS,ioos:station:WAVCIS:CSI03:1,2011-02-03T11:00:00Z,29.4412,-92.0613,0.62,11111222 
WAVCIS,ioos:station:WAVCIS:CSI03:1,2011-02-03T12:00:00Z,29.4412,-92.0613,0.476,11111222 
WAVCIS,ioos:station:WAVCIS:CSI03:1,2011-02-03T13:00:00Z,29.4412,-92.0613,0.311,11111222 
WAVCIS,ioos:station:WAVCIS:CSI03:1,2011-02-03T14:00:00Z,29.4412,-92.0613,0.202,11111222 
WAVCIS,ioos:station:WAVCIS:CSI03:1,2011-02-03T15:00:00Z,29.4412,-92.0613,0.269,11111222 
WAVCIS,ioos:station:WAVCIS:CSI03:1,2011-02-03T16:00:00Z,29.4412,-92.0613,0.069,11111222 
WAVCIS,ioos:station:WAVCIS:CSI03:1,2011-02-03T17:00:00Z,29.4412,-92.0613,0.137,11111222 
WAVCIS,ioos:station:WAVCIS:CSI03:1,2011-02-03T18:00:00Z,29.4412,-92.0613,0.262,11111222 
WAVCIS,ioos:station:WAVCIS:CSI03:1,2011-02-03T19:00:00Z,29.4412,-92.0613,0.254,11111222 
WAVCIS,ioos:station:WAVCIS:CSI03:1,2011-02-03T20:00:00Z,29.4412,-92.0613,0.464,11111222 
WAVCIS,ioos:station:WAVCIS:CSI03:1,2011-02-03T21:00:00Z,29.4412,-92.0613,0.646,11111222 
WAVCIS,ioos:station:WAVCIS:CSI03:1,2011-02-03T22:00:00Z,29.4412,-92.0613,0.719,11111222 
WAVCIS,ioos:station:WAVCIS:CSI03:1,2011-02-03T23:00:00Z,29.4412,-92.0613,0.932,11111222 
WAVCIS,ioos:station:WAVCIS:CSI03:1,2011-02-04T00:00:00Z,29.4412,-92.0613,0.971,11111222 
WAVCIS,ioos:station:WAVCIS:CSI03:1,2011-02-04T01:00:00Z,29.4412,-92.0613,0.985,11111222 
WAVCIS,ioos:station:WAVCIS:CSI03:1,2011-02-04T02:00:00Z,29.4412,-92.0613,1.116,11111222 
WAVCIS,ioos:station:WAVCIS:CSI03:1,2011-02-04T03:00:00Z,29.4412,-92.0613,1.013,11111222 
WAVCIS,ioos:station:WAVCIS:CSI03:1,2011-02-04T04:00:00Z,29.4412,-92.0613,1.223,11111222 
WAVCIS,ioos:station:WAVCIS:CSI03:1,2011-02-04T05:00:00Z,29.4412,-92.0613,1.232,11111222 
WAVCIS,ioos:station:WAVCIS:CSI03:1,2011-02-04T06:00:00Z,29.4412,-92.0613,0.928,11111222 
WAVCIS,ioos:station:WAVCIS:CSI03:1,2011-02-04T07:00:00Z,29.4412,-92.0613,0.801,11111222 
WAVCIS,ioos:station:WAVCIS:CSI03:1,2011-02-04T08:00:00Z,29.4412,-92.0613,0.721,11111222 
WAVCIS,ioos:station:WAVCIS:CSI03:1,2011-02-04T09:00:00Z,29.4412,-92.0613,0.756,11111222 
WAVCIS,ioos:station:WAVCIS:CSI03:1,2011-02-04T10:00:00Z,29.4412,-92.0613,1.055,11111222 
WAVCIS,ioos:station:WAVCIS:CSI03:1,2011-02-04T11:00:00Z,29.4412,-92.0613,0.545,11111222 
WAVCIS,ioos:station:WAVCIS:CSI03:1,2011-02-04T12:00:00Z,29.4412,-92.0613,0.714,11111222 
WAVCIS,ioos:station:WAVCIS:CSI03:1,2011-02-04T13:00:00Z,29.4412,-92.0613,1.034,11111222 
WAVCIS,ioos:station:WAVCIS:CSI03:1,2011-02-04T14:00:00Z,29.4412,-92.0613,0.808,11111222 
WAVCIS,ioos:station:WAVCIS:CSI03:1,2011-02-04T15:00:00Z,29.4412,-92.0613,0.9,11111222 
WAVCIS,ioos:station:WAVCIS:CSI03:1,2011-02-04T16:00:00Z,29.4412,-92.0613,1.074,11111222 
WAVCIS,ioos:station:WAVCIS:CSI03:1,2011-02-04T17:00:00Z,29.4412,-92.0613,1.036,11111222 
WAVCIS,ioos:station:WAVCIS:CSI03:1,2011-02-04T18:00:00Z,29.4412,-92.0613,1.206,11111222 
WAVCIS,ioos:station:WAVCIS:CSI03:1,2011-02-04T19:00:00Z,29.4412,-92.0613,1.659,11111222 
WAVCIS,ioos:station:WAVCIS:CSI03:1,2011-02-04T20:00:00Z,29.4412,-92.0613,2.142,11111222 
WAVCIS,ioos:station:WAVCIS:CSI03:1,2011-02-04T21:00:00Z,29.4412,-92.0613,2.586,11111222 
WAVCIS,ioos:station:WAVCIS:CSI03:1,2011-02-04T22:00:00Z,29.4412,-92.0613,2.779,11111222 
WAVCIS,ioos:station:WAVCIS:CSI03:1,2011-02-04T23:00:00Z,29.4412,-92.0613,2.892,11111222 
WAVCIS,ioos:station:WAVCIS:CSI03:1,2011-02-05T00:00:00Z,29.4412,-92.0613,2.692,11111222 
WAVCIS,ioos:station:WAVCIS:CSI03:1,2011-02-05T01:00:00Z,29.4412,-92.0613,2.818,11111222 
WAVCIS,ioos:station:WAVCIS:CSI03:1,2011-02-05T02:00:00Z,29.4412,-92.0613,2.44,11111222 
WAVCIS,ioos:station:WAVCIS:CSI03:1,2011-02-05T03:00:00Z,29.4412,-92.0613,1.961,11111222 
WAVCIS,ioos:station:WAVCIS:CSI03:1,2011-02-05T04:00:00Z,29.4412,-92.0613,1.0,11111222 
WAVCIS,ioos:station:WAVCIS:CSI03:1,2011-02-05T05:00:00Z,29.4412,-92.0613,0.442,11111222 
WAVCIS,ioos:station:WAVCIS:CSI03:1,2011-02-05T06:00:00Z,29.4412,-92.0613,-0.105,11133222 
WAVCIS,ioos:station:WAVCIS:CSI03:1,2011-02-05T07:00:00Z,29.4412,-92.0613,0.174,11111222 
WAVCIS,ioos:station:WAVCIS:CSI03:1,2011-02-05T08:00:00Z,29.4412,-92.0613,0.063,11111222 
WAVCIS,ioos:station:WAVCIS:CSI03:1,2011-02-05T09:00:00Z,29.4412,-92.0613,0.144,11111222 
WAVCIS,ioos:station:WAVCIS:CSI03:1,2011-02-05T10:00:00Z,29.4412,-92.0613,0.248,11111222 
WAVCIS,ioos:station:WAVCIS:CSI03:1,2011-02-05T11:00:00Z,29.4412,-92.0613,0.38,11111222 
WAVCIS,ioos:station:WAVCIS:CSI03:1,2011-02-05T12:00:00Z,29.4412,-92.0613,0.826,11111222 
WAVCIS,ioos:station:WAVCIS:CSI03:1,2011-02-05T13:00:00Z,29.4412,-92.0613,0.937,11111222 
WAVCIS,ioos:station:WAVCIS:CSI03:1,2011-02-05T14:00:00Z,29.4412,-92.0613,2.009,11111222 
WAVCIS,ioos:station:WAVCIS:CSI03:1,2011-02-05T15:00:00Z,29.4412,-92.0613,3.316,11111222 
WAVCIS,ioos:station:WAVCIS:CSI03:1,2011-02-05T16:00:00Z,29.4412,-92.0613,4.217,11111222 
WAVCIS,ioos:station:WAVCIS:CSI03:1,2011-02-05T17:00:00Z,29.4412,-92.0613,4.737,11111222 
WAVCIS,ioos:station:WAVCIS:CSI03:1,2011-02-05T18:00:00Z,29.4412,-92.0613,5.669,11111222 
WAVCIS,ioos:station:WAVCIS:CSI03:1,2011-02-05T19:00:00Z,29.4412,-92.0613,7.41,11111222 
WAVCIS,ioos:station:WAVCIS:CSI03:1,2011-02-05T20:00:00Z,29.4412,-92.0613,6.215,11111222 
WAVCIS,ioos:station:WAVCIS:CSI03:1,2011-02-05T21:00:00Z,29.4412,-92.0613,7.75,11111222 
WAVCIS,ioos:station:WAVCIS:CSI03:1,2011-02-05T22:00:00Z,29.4412,-92.0613,8.6,11111222 
WAVCIS,ioos:station:WAVCIS:CSI03:1,2011-02-05T23:00:00Z,29.4412,-92.0613,10.34,11111222 
WAVCIS,ioos:station:WAVCIS:CSI03:1,2011-02-06T00:00:00Z,29.4412,-92.0613,8.36,11111222 
WAVCIS,ioos:station:WAVCIS:CSI03:1,2011-02-06T01:00:00Z,29.4412,-92.0613,9.0,11111222 
WAVCIS,ioos:station:WAVCIS:CSI03:1,2011-02-06T02:00:00Z,29.4412,-92.0613,8.64,11111222 
WAVCIS,ioos:station:WAVCIS:CSI03:1,2011-02-06T03:00:00Z,29.4412,-92.0613,8.43,11111222 
WAVCIS,ioos:station:WAVCIS:CSI03:1,2011-02-06T04:00:00Z,29.4412,-92.0613,8.59,11111222 
WAVCIS,ioos:station:WAVCIS:CSI03:1,2011-02-06T05:00:00Z,29.4412,-92.0613,8.83,11111222 
WAVCIS,ioos:station:WAVCIS:CSI03:1,2011-02-06T06:00:00Z,29.4412,-92.0613,8.68,11111222 
WAVCIS,ioos:station:WAVCIS:CSI03:1,2011-02-06T07:00:00Z,29.4412,-92.0613,8.7,11111222 
WAVCIS,ioos:station:WAVCIS:CSI03:1,2011-02-06T08:00:00Z,29.4412,-92.0613,9.15,11111222 
WAVCIS,ioos:station:WAVCIS:CSI03:1,2011-02-06T09:00:00Z,29.4412,-92.0613,9.33,11111222 
WAVCIS,ioos:station:WAVCIS:CSI03:1,2011-02-06T10:00:00Z,29.4412,-92.0613,9.28,11111222 
WAVCIS,ioos:station:WAVCIS:CSI03:1,2011-02-06T11:00:00Z,29.4412,-92.0613,8.91,11111222 
WAVCIS,ioos:station:WAVCIS:CSI03:1,2011-02-06T12:00:00Z,29.4412,-92.0613,8.85,11111222 
WAVCIS,ioos:station:WAVCIS:CSI03:1,2011-02-06T13:00:00Z,29.4412,-92.0613,9.14,11111222 
WAVCIS,ioos:station:WAVCIS:CSI03:1,2011-02-06T14:00:00Z,29.4412,-92.0613,10.38,11111222 
WAVCIS,ioos:station:WAVCIS:CSI03:1,2011-02-06T15:00:00Z,29.4412,-92.0613,9.53,11111222 
WAVCIS,ioos:station:WAVCIS:CSI03:1,2011-02-06T16:00:00Z,29.4412,-92.0613,9.78,11111222 
WAVCIS,ioos:station:WAVCIS:CSI03:1,2011-02-06T17:00:00Z,29.4412,-92.0613,10.03,11111222 
WAVCIS,ioos:station:WAVCIS:CSI03:1,2011-02-06T18:00:00Z,29.4412,-92.0613,10.47,11111222 
WAVCIS,ioos:station:WAVCIS:CSI03:1,2011-02-06T19:00:00Z,29.4412,-92.0613,10.34,11111222 
WAVCIS,ioos:station:WAVCIS:CSI03:1,2011-02-06T20:00:00Z,29.4412,-92.0613,10.86,11111222 
WAVCIS,ioos:station:WAVCIS:CSI03:1,2011-02-06T21:00:00Z,29.4412,-92.0613,10.57,11111222 
WAVCIS,ioos:station:WAVCIS:CSI03:1,2011-02-06T22:00:00Z,29.4412,-92.0613,10.97,11111222 
WAVCIS,ioos:station:WAVCIS:CSI03:1,2011-02-06T23:00:00Z,29.4412,-92.0613,11.1,11111222 
WAVCIS,ioos:station:WAVCIS:CSI03:1,2011-02-07T00:00:00Z,29.4412,-92.0613,10.78,11111222 
WAVCIS,ioos:station:WAVCIS:CSI03:1,2011-02-07T01:00:00Z,29.4412,-92.0613,10.19,11111222 
WAVCIS,ioos:station:WAVCIS:CSI03:1,2011-02-07T02:00:00Z,29.4412,-92.0613,10.87,11111222 
WAVCIS,ioos:station:WAVCIS:CSI03:1,2011-02-07T03:00:00Z,29.4412,-92.0613,11.35,11111222 
WAVCIS,ioos:station:WAVCIS:CSI03:1,2011-02-07T04:00:00Z,29.4412,-92.0613,11.78,11111222 
WAVCIS,ioos:station:WAVCIS:CSI03:1,2011-02-07T05:00:00Z,29.4412,-92.0613,13.03,11111222 
WAVCIS,ioos:station:WAVCIS:CSI03:1,2011-02-07T06:00:00Z,29.4412,-92.0613,16.37,11111222 
WAVCIS,ioos:station:WAVCIS:CSI03:1,2011-02-07T07:00:00Z,29.4412,-92.0613,13.33,11111222 
WAVCIS,ioos:station:WAVCIS:CSI03:1,2011-02-07T08:00:00Z,29.4412,-92.0613,14.91,11111222 
WAVCIS,ioos:station:WAVCIS:CSI03:1,2011-02-07T09:00:00Z,29.4412,-92.0613,13.17,11111222 
WAVCIS,ioos:station:WAVCIS:CSI03:1,2011-02-07T10:00:00Z,29.4412,-92.0613,11.6,11111222 
WAVCIS,ioos:station:WAVCIS:CSI03:1,2011-02-07T11:00:00Z,29.4412,-92.0613,10.91,11111222 
WAVCIS,ioos:station:WAVCIS:CSI03:1,2011-02-07T12:00:00Z,29.4412,-92.0613,9.6,11111222 
WAVCIS,ioos:station:WAVCIS:CSI03:1,2011-02-07T13:00:00Z,29.4412,-92.0613,8.03,11111222 
WAVCIS,ioos:station:WAVCIS:CSI03:1,2011-02-07T14:00:00Z,29.4412,-92.0613,7.17,11111222 
WAVCIS,ioos:station:WAVCIS:CSI03:1,2011-02-07T15:00:00Z,29.4412,-92.0613,7.04,11111222 
WAVCIS,ioos:station:WAVCIS:CSI03:1,2011-02-07T16:00:00Z,29.4412,-92.0613,7.27,11111222 
WAVCIS,ioos:station:WAVCIS:CSI03:1,2011-02-07T17:00:00Z,29.4412,-92.0613,6.773,11111222 
WAVCIS,ioos:station:WAVCIS:CSI03:1,2011-02-07T18:00:00Z,29.4412,-92.0613,7.24,11111222 
WAVCIS,ioos:station:WAVCIS:CSI03:1,2011-02-07T19:00:00Z,29.4412,-92.0613,7.55,11111222 
WAVCIS,ioos:station:WAVCIS:CSI03:1,2011-02-07T20:00:00Z,29.4412,-92.0613,8.03,11111222 
WAVCIS,ioos:station:WAVCIS:CSI03:1,2011-02-07T21:00:00Z,29.4412,-92.0613,8.73,11111222 
WAVCIS,ioos:station:WAVCIS:CSI03:1,2011-02-07T22:00:00Z,29.4412,-92.0613,9.4,11111222 
WAVCIS,ioos:station:WAVCIS:CSI03:1,2011-02-07T23:00:00Z,29.4412,-92.0613,9.46,11111222 
WAVCIS,ioos:station:WAVCIS:CSI03:1,2011-02-08T00:00:00Z,29.4412,-92.0613,9.07,11111222 
WAVCIS,ioos:station:WAVCIS:CSI03:1,2011-02-08T01:00:00Z,29.4412,-92.0613,8.12,11111222 
WAVCIS,ioos:station:WAVCIS:CSI03:1,2011-02-08T02:00:00Z,29.4412,-92.0613,6.882,11111222 
WAVCIS,ioos:station:WAVCIS:CSI03:1,2011-02-08T03:00:00Z,29.4412,-92.0613,6.332,11111222 
WAVCIS,ioos:station:WAVCIS:CSI03:1,2011-02-08T04:00:00Z,29.4412,-92.0613,6.057,11111222 
WAVCIS,ioos:station:WAVCIS:CSI03:1,2011-02-08T05:00:00Z,29.4412,-92.0613,5.988,11111222 
WAVCIS,ioos:station:WAVCIS:CSI03:1,2011-02-08T06:00:00Z,29.4412,-92.0613,5.677,11111222 
WAVCIS,ioos:station:WAVCIS:CSI03:1,2011-02-08T07:00:00Z,29.4412,-92.0613,5.539,11111222 
WAVCIS,ioos:station:WAVCIS:CSI03:1,2011-02-08T08:00:00Z,29.4412,-92.0613,5.613,11111222 
WAVCIS,ioos:station:WAVCIS:CSI03:1,2011-02-08T09:00:00Z,29.4412,-92.0613,5.546,11111222 
WAVCIS,ioos:station:WAVCIS:CSI03:1,2011-02-08T10:00:00Z,29.4412,-92.0613,5.467,11111222 
WAVCIS,ioos:station:WAVCIS:CSI03:1,2011-02-08T11:00:00Z,29.4412,-92.0613,5.298,11111222 
WAVCIS,ioos:station:WAVCIS:CSI03:1,2011-02-08T12:00:00Z,29.4412,-92.0613,5.317,11111222 
WAVCIS,ioos:station:WAVCIS:CSI03:1,2011-02-08T13:00:00Z,29.4412,-92.0613,5.27,11111222 
WAVCIS,ioos:station:WAVCIS:CSI03:1,2011-02-08T14:00:00Z,29.4412,-92.0613,5.35,11111222 
WAVCIS,ioos:station:WAVCIS:CSI03:1,2011-02-08T15:00:00Z,29.4412,-92.0613,5.127,11111222 
WAVCIS,ioos:station:WAVCIS:CSI03:1,2011-02-08T16:00:00Z,29.4412,-92.0613,5.452,11111222 
WAVCIS,ioos:station:WAVCIS:CSI03:1,2011-02-08T17:00:00Z,29.4412,-92.0613,5.475,11111222 
WAVCIS,ioos:station:WAVCIS:CSI03:1,2011-02-08T18:00:00Z,29.4412,-92.0613,5.574,11111222 
WAVCIS,ioos:station:WAVCIS:CSI03:1,2011-02-08T19:00:00Z,29.4412,-92.0613,5.969,11111222 
WAVCIS,ioos:station:WAVCIS:CSI03:1,2011-02-08T20:00:00Z,29.4412,-92.0613,6.498,11111222 
WAVCIS,ioos:station:WAVCIS:CSI03:1,2011-02-08T21:00:00Z,29.4412,-92.0613,7.04,11111222 
WAVCIS,ioos:station:WAVCIS:CSI03:1,2011-02-08T22:00:00Z,29.4412,-92.0613,7.51,11111222 
WAVCIS,ioos:station:WAVCIS:CSI03:1,2011-02-08T23:00:00Z,29.4412,-92.0613,7.54,11111222 
WAVCIS,ioos:station:WAVCIS:CSI03:1,2011-02-09T00:00:00Z,29.4412,-92.0613,7.78,11111222 
WAVCIS,ioos:station:WAVCIS:CSI03:1,2011-02-09T01:00:00Z,29.4412,-92.0613,8.23,11111222 
WAVCIS,ioos:station:WAVCIS:CSI03:1,2011-02-09T02:00:00Z,29.4412,-92.0613,8.51,11111222 
WAVCIS,ioos:station:WAVCIS:CSI03:1,2011-02-09T03:00:00Z,29.4412,-92.0613,8.54,11111222 
WAVCIS,ioos:station:WAVCIS:CSI03:1,2011-02-09T04:00:00Z,29.4412,-92.0613,8.56,11111222 
WAVCIS,ioos:station:WAVCIS:CSI03:1,2011-02-09T05:00:00Z,29.4412,-92.0613,8.37,11111222 
WAVCIS,ioos:station:WAVCIS:CSI03:1,2011-02-09T06:00:00Z,29.4412,-92.0613,8.26,11111222 
WAVCIS,ioos:station:WAVCIS:CSI03:1,2011-02-09T07:00:00Z,29.4412,-92.0613,8.14,11111222 
WAVCIS,ioos:station:WAVCIS:CSI03:1,2011-02-09T08:00:00Z,29.4412,-92.0613,7.97,11111222 
WAVCIS,ioos:station:WAVCIS:CSI03:1,2011-02-09T09:00:00Z,29.4412,-92.0613,7.41,11111222 
WAVCIS,ioos:station:WAVCIS:CSI03:1,2011-02-09T10:00:00Z,29.4412,-92.0613,7.53,11111222 
WAVCIS,ioos:station:WAVCIS:CSI03:1,2011-02-09T11:00:00Z,29.4412,-92.0613,7.54,11111222 
WAVCIS,ioos:station:WAVCIS:CSI03:1,2011-02-09T12:00:00Z,29.4412,-92.0613,7.51,11111222 
WAVCIS,ioos:station:WAVCIS:CSI03:1,2011-02-09T13:00:00Z,29.4412,-92.0613,7.74,11111222 
WAVCIS,ioos:station:WAVCIS:CSI03:1,2011-02-09T14:00:00Z,29.4412,-92.0613,7.69,11111222 
WAVCIS,ioos:station:WAVCIS:CSI03:1,2011-02-09T15:00:00Z,29.4412,-92.0613,8.21,11111222 
WAVCIS,ioos:station:WAVCIS:CSI03:1,2011-02-09T16:00:00Z,29.4412,-92.0613,8.42,11111222 
WAVCIS,ioos:station:WAVCIS:CSI03:1,2011-02-09T17:00:00Z,29.4412,-92.0613,8.61,11111222 
WAVCIS,ioos:station:WAVCIS:CSI03:1,2011-02-09T18:00:00Z,29.4412,-92.0613,9.44,11111222 
WAVCIS,ioos:station:WAVCIS:CSI03:1,2011-02-09T19:00:00Z,29.4412,-92.0613,9.38,11111222 
WAVCIS,ioos:station:WAVCIS:CSI03:1,2011-02-09T20:00:00Z,29.4412,-92.0613,10.29,11111222 
WAVCIS,ioos:station:WAVCIS:CSI03:1,2011-02-09T21:00:00Z,29.4412,-92.0613,10.67,11111222 
WAVCIS,ioos:station:WAVCIS:CSI03:1,2011-02-09T22:00:00Z,29.4412,-92.0613,11.19,11111222 
WAVCIS,ioos:station:WAVCIS:CSI03:1,2011-02-09T23:00:00Z,29.4412,-92.0613,8.76,11111222 
WAVCIS,ioos:station:WAVCIS:CSI03:1,2011-02-10T00:00:00Z,29.4412,-92.0613,6.151,11111222 
WAVCIS,ioos:station:WAVCIS:CSI03:1,2011-02-10T01:00:00Z,29.4412,-92.0613,5.81,11111222 
WAVCIS,ioos:station:WAVCIS:CSI03:1,2011-02-10T02:00:00Z,29.4412,-92.0613,5.227,11111222 
WAVCIS,ioos:station:WAVCIS:CSI03:1,2011-02-10T03:00:00Z,29.4412,-92.0613,4.546,11111222 
WAVCIS,ioos:station:WAVCIS:CSI03:1,2011-02-10T04:00:00Z,29.4412,-92.0613,4.594,11111222 
WAVCIS,ioos:station:WAVCIS:CSI03:1,2011-02-10T05:00:00Z,29.4412,-92.0613,4.24,11111222 
WAVCIS,ioos:station:WAVCIS:CSI03:1,2011-02-10T06:00:00Z,29.4412,-92.0613,3.697,11111222 
WAVCIS,ioos:station:WAVCIS:CSI03:1,2011-02-10T07:00:00Z,29.4412,-92.0613,3.137,11111222 
WAVCIS,ioos:station:WAVCIS:CSI03:1,2011-02-10T08:00:00Z,29.4412,-92.0613,2.715,11111222 
WAVCIS,ioos:station:WAVCIS:CSI03:1,2011-02-10T09:00:00Z,29.4412,-92.0613,2.585,11111222 
WAVCIS,ioos:station:WAVCIS:CSI03:1,2011-02-10T10:00:00Z,29.4412,-92.0613,1.909,11111222 
WAVCIS,ioos:station:WAVCIS:CSI03:1,2011-02-10T11:00:00Z,29.4412,-92.0613,1.564,11111222 
WAVCIS,ioos:station:WAVCIS:CSI03:1,2011-02-10T12:00:00Z,29.4412,-92.0613,1.329,11111222 
WAVCIS,ioos:station:WAVCIS:CSI03:1,2011-02-10T13:00:00Z,29.4412,-92.0613,1.02,11111222 
WAVCIS,ioos:station:WAVCIS:CSI03:1,2011-02-10T14:00:00Z,29.4412,-92.0613,0.287,11111222 
WAVCIS,ioos:station:WAVCIS:CSI03:1,2011-02-10T15:00:00Z,29.4412,-92.0613,0.426,11111222 
WAVCIS,ioos:station:WAVCIS:CSI03:1,2011-02-10T16:00:00Z,29.4412,-92.0613,0.224,11111222 
WAVCIS,ioos:station:WAVCIS:CSI03:1,2011-02-10T17:00:00Z,29.4412,-92.0613,0.116,11111222 
WAVCIS,ioos:station:WAVCIS:CSI03:1,2011-02-10T18:00:00Z,29.4412,-92.0613,0.295,11111222 
WAVCIS,ioos:station:WAVCIS:CSI03:1,2011-02-10T19:00:00Z,29.4412,-92.0613,0.721,11111222 
WAVCIS,ioos:station:WAVCIS:CSI03:1,2011-02-10T20:00:00Z,29.4412,-92.0613,1.287,11111222 
WAVCIS,ioos:station:WAVCIS:CSI03:1,2011-02-10T21:00:00Z,29.4412,-92.0613,1.922,11111222 
WAVCIS,ioos:station:WAVCIS:CSI03:1,2011-02-10T22:00:00Z,29.4412,-92.0613,2.44,11111222 
WAVCIS,ioos:station:WAVCIS:CSI03:1,2011-02-10T23:00:00Z,29.4412,-92.0613,2.93,11111222 
WAVCIS,ioos:station:WAVCIS:CSI03:1,2011-02-11T00:00:00Z,29.4412,-92.0613,2.991,11111222 
WAVCIS,ioos:station:WAVCIS:CSI03:1,2011-02-11T01:00:00Z,29.4412,-92.0613,3.219,11111222 
WAVCIS,ioos:station:WAVCIS:CSI03:1,2011-02-11T02:00:00Z,29.4412,-92.0613,3.098,11111222 
WAVCIS,ioos:station:WAVCIS:CSI03:1,2011-02-11T03:00:00Z,29.4412,-92.0613,2.932,11111222 
WAVCIS,ioos:station:WAVCIS:CSI03:1,2011-02-11T04:00:00Z,29.4412,-92.0613,2.725,11111222 
WAVCIS,ioos:station:WAVCIS:CSI03:1,2011-02-11T05:00:00Z,29.4412,-92.0613,2.324,11111222 
WAVCIS,ioos:station:WAVCIS:CSI03:1,2011-02-11T06:00:00Z,29.4412,-92.0613,1.8,11111222 
WAVCIS,ioos:station:WAVCIS:CSI03:1,2011-02-11T07:00:00Z,29.4412,-92.0613,1.454,11111222 
WAVCIS,ioos:station:WAVCIS:CSI03:1,2011-02-11T08:00:00Z,29.4412,-92.0613,1.147,11111222 
WAVCIS,ioos:station:WAVCIS:CSI03:1,2011-02-11T09:00:00Z,29.4412,-92.0613,0.931,11111222 
WAVCIS,ioos:station:WAVCIS:CSI03:1,2011-02-11T10:00:00Z,29.4412,-92.0613,0.616,11111222 
WAVCIS,ioos:station:WAVCIS:CSI03:1,2011-02-11T11:00:00Z,29.4412,-92.0613,0.404,11111222 
WAVCIS,ioos:station:WAVCIS:CSI03:1,2011-02-11T12:00:00Z,29.4412,-92.0613,0.203,11111222 
WAVCIS,ioos:station:WAVCIS:CSI03:1,2011-02-11T13:00:00Z,29.4412,-92.0613,-0.011,11133222 
WAVCIS,ioos:station:WAVCIS:CSI03:1,2011-02-11T14:00:00Z,29.4412,-92.0613,0.171,11111222 
WAVCIS,ioos:station:WAVCIS:CSI03:1,2011-02-11T15:00:00Z,29.4412,-92.0613,0.405,11111222 
WAVCIS,ioos:station:WAVCIS:CSI03:1,2011-02-11T16:00:00Z,29.4412,-92.0613,0.601,11111222 
WAVCIS,ioos:station:WAVCIS:CSI03:1,2011-02-11T17:00:00Z,29.4412,-92.0613,1.057,11111222 
WAVCIS,ioos:station:WAVCIS:CSI03:1,2011-02-11T18:00:00Z,29.4412,-92.0613,2.281,11111222 
WAVCIS,ioos:station:WAVCIS:CSI03:1,2011-02-11T19:00:00Z,29.4412,-92.0613,3.552,11111222 
WAVCIS,ioos:station:WAVCIS:CSI03:1,2011-02-11T20:00:00Z,29.4412,-92.0613,5.25,11111222 
WAVCIS,ioos:station:WAVCIS:CSI03:1,2011-02-11T21:00:00Z,29.4412,-92.0613,6.056,11111222 
WAVCIS,ioos:station:WAVCIS:CSI03:1,2011-02-11T22:00:00Z,29.4412,-92.0613,7.34,11111222 
WAVCIS,ioos:station:WAVCIS:CSI03:1,2011-02-11T23:00:00Z,29.4412,-92.0613,7.28,11111222 
WAVCIS,ioos:station:WAVCIS:CSI03:1,2011-02-12T00:00:00Z,29.4412,-92.0613,7.2,11111222 
WAVCIS,ioos:station:WAVCIS:CSI03:1,2011-02-12T01:00:00Z,29.4412,-92.0613,7.07,11111222 
WAVCIS,ioos:station:WAVCIS:CSI03:1,2011-02-12T02:00:00Z,29.4412,-92.0613,6.952,11111222 
WAVCIS,ioos:station:WAVCIS:CSI03:1,2011-02-12T03:00:00Z,29.4412,-92.0613,6.63,11111222 
WAVCIS,ioos:station:WAVCIS:CSI03:1,2011-02-12T04:00:00Z,29.4412,-92.0613,6.661,11111222 